Location: Gugi
(45.4667°N, 11.1000°E)
Time: 23:36:22
(UTC+00:00)

Cosmos 2297 Rocket - Pass Details

Date: 17 November 2019
Orbit: 840 x 843 km, 71.0° (Epoch: 05 December)

Event Time Altitude Azimuth Distance (km) Brightness Sun altitude
Rises 16:24:24 0° 334° (NNW) 3,408 5.4 -7.4°
Reaches altitude 10° 16:26:52 10° 336° (NNW) 2,470 4.7 -7.8°
Maximum altitude 16:32:33 81° 64° (ENE) 858 2.2 -8.7°
Drops below altitude 10° 16:38:12 10° 152° (SSE) 2,456 4.5 -9.7°
Sets 16:40:38 0° 153° (SSE) 3,387 5.2 -10.1°
